Theta_e
333 334 335 335 335 336 336 336 335 334 332 330 330 326 322 323 325 326 327 329 329 330 330 330 332 333 331 331 330 331 332 329 329 331 331 331 331 330 329 327 324 320 320 324 326 326 326 327 326 325 321 314 310 316 316 310 312 318 322 324 323 323 326 328 328 328 328 324 319 318 318 316 316 313 310 307 304 302 301 300 298 297 297 296 296
333 333 334 335 335 335 336 336 336 335 332 331 333 332 328 327 329 329 329 330 330 330 329 328 330 330 329 331 330 331 331 328 328 331 331 331 331 330 329 328 326 324 320 322 326 326 326 327 327 326 324 318 315 319 318 309 308 318 324 324 324 324 326 328 327 328 327 323 319 317 317 316 315 312 309 305 303 301 300 299 298 296 296 296 296
334 335 335 335 335 334 335 336 336 336 332 329 331 333 332 329 330 331 331 331 331 331 329 326 328 328 327 329 330 330 330 329 328 331 331 331 331 330 330 330 328 327 322 321 324 325 325 327 327 326 325 322 320 322 318 310 310 317 323 324 325 326 326 328 328 328 327 322 319 317 317 316 314 311 307 304 302 301 300 299 298 296 296 295 295
335 336 335 335 335 334 334 335 336 336 333 329 330 333 333 330 331 332 333 332 332 332 329 327 329 328 328 328 328 329 330 330 329 330 331 331 331 331 331 330 329 327 325 322 322 323 323 325 328 326 326 324 323 324 320 317 314 316 323 325 326 326 326 328 328 328 326 320 318 318 317 315 313 310 306 303 302 301 300 298 297 296 296 296 295
335 336 336 336 336 335 335 335 335 336 335 331 330 333 333 331 332 332 332 332 332 332 329 328 329 327 328 328 328 328 329 330 329 329 330 331 331 332 331 330 329 328 327 325 321 323 322 323 328 328 326 326 323 324 324 322 318 314 320 325 325 326 325 327 328 328 326 321 318 317 317 315 313 309 305 302 301 300 299 298 296 296 295 295 295
335 335 336 337 336 336 336 335 335 336 336 334 332 332 333 332 332 332 332 332 332 333 330 328 328 327 326 327 328 328 328 329 329 330 330 330 331 332 332 330 330 329 328 326 322 322 322 321 327 328 327 326 324 324 324 324 322 315 318 324 325 326 325 327 328 327 326 323 319 318 316 315 312 308 304 302 301 300 299 297 296 296 295 295 295
335 335 336 337 336 337 337 336 336 335 335 334 332 332 332 332 332 333 333 333 333 333 331 329 328 329 327 326 327 327 326 327 328 329 330 330 330 331 332 331 331 330 328 328 324 322 322 320 323 328 328 327 325 325 324 323 324 318 316 323 325 326 326 327 329 327 325 323 319 318 317 316 312 307 304 302 301 300 298 297 296 295 295 295 294
332 334 335 336 336 337 337 336 336 335 334 333 332 332 332 331 332 333 333 333 333 332 331 330 329 329 329 327 326 326 326 326 327 328 330 330 331 331 331 332 331 331 330 329 327 324 324 321 320 324 327 327 325 326 324 321 323 320 317 323 325 325 327 327 328 327 325 324 320 318 317 316 312 306 303 302 301 300 298 297 296 295 295 295 294
330 332 333 334 335 337 337 337 336 335 334 333 333 332 333 332 333 333 332 332 333 332 331 330 330 329 329 329 326 326 325 326 326 328 330 330 331 331 331 332 331 331 330 330 329 327 327 325 322 320 324 327 325 325 325 321 322 320 316 323 325 323 326 327 328 328 326 325 321 318 317 316 312 306 303 302 301 300 298 296 296 295 295 294 294
328 330 333 332 334 335 336 336 336 336 335 334 334 333 333 333 333 333 332 332 332 332 332 332 331 330 329 329 327 326 324 324 325 327 329 330 330 331 330 331 330 330 330 330 329 329 328 328 325 321 322 324 324 324 324 322 324 322 316 320 325 324 325 328 328 328 327 326 323 319 317 316 312 306 303 302 301 300 298 296 296 295 294 294 294
327 328 330 331 332 333 334 335 335 335 335 335 335 335 334 333 334 333 332 332 332 333 334 334 333 332 331 330 328 326 325 324 324 326 328 329 329 330 330 330 329 329 329 329 329 329 328 328 327 325 322 322 322 322 322 322 323 325 320 318 324 325 325 328 328 328 328 327 324 319 317 316 311 306 303 302 301 300 298 296 295 295 294 294 294
325 325 327 329 329 330 331 332 331 332 333 334 335 335 335 335 334 334 333 333 333 333 333 334 334 333 333 332 330 328 326 325 324 324 326 329 328 328 329 329 329 329 329 329 329 328 328 328 328 327 325 323 322 321 322 322 321 325 323 317 321 326 326 327 329 328 328 326 324 320 316 316 312 306 304 302 302 300 298 297 295 295 294 294 293
323 323 325 326 327 328 328 328 328 330 331 331 334 335 335 335 334 333 334 335 334 333 332 334 334 333 333 333 332 329 327 326 325 324 325 327 328 328 328 328 329 329 329 329 328 328 328 328 328 327 326 325 323 322 322 323 321 323 325 320 319 324 326 327 329 329 327 326 324 320 316 316 312 306 304 302 302 301 299 297 295 295 294 294 294
323 322 322 323 324 326 327 327 327 329 329 329 331 332 332 334 334 334 334 334 335 334 334 334 334 333 332 332 333 330 327 326 326 326 325 326 327 328 328 327 328 328 329 329 328 328 328 327 328 327 327 326 325 324 323 324 323 322 324 323 319 322 327 327 329 330 328 327 325 320 316 317 312 307 305 303 302 301 299 297 296 295 295 294 294
321 321 322 322 323 324 325 325 326 327 329 328 328 328 329 330 331 332 334 334 335 335 335 335 334 333 332 334 335 332 330 328 326 327 327 327 327 327 328 327 327 327 328 329 328 328 328 327 328 327 327 327 326 326 326 325 324 322 322 322 318 319 326 328 328 330 329 328 326 320 316 317 313 307 305 303 302 301 300 298 296 295 295 295 294
318 320 321 321 322 322 323 323 324 325 326 328 328 327 328 328 328 329 331 332 334 334 335 335 335 334 333 335 334 332 334 332 327 327 328 328 328 327 327 327 327 327 327 328 328 328 328 327 328 328 327 328 327 327 327 326 325 323 322 321 316 316 324 327 328 330 329 327 326 321 316 316 313 307 305 304 302 301 300 299 297 296 295 295 294
317 319 319 319 320 321 322 322 323 324 324 325 326 327 328 328 328 329 330 331 332 332 332 333 334 334 333 333 333 333 335 332 328 329 328 328 329 327 326 326 326 327 327 327 327 327 328 328 327 328 327 327 327 327 328 327 326 325 324 323 318 315 321 326 327 330 330 327 327 322 317 317 314 307 305 303 302 302 301 299 298 296 295 295 294
315 316 318 318 318 319 320 320 321 322 322 322 323 324 325 327 327 328 329 329 330 331 332 332 333 333 332 333 333 334 334 332 332 333 331 329 328 328 327 326 326 327 327 326 327 327 328 328 327 328 327 327 328 328 328 328 327 327 325 325 323 317 318 322 325 329 330 327 327 323 317 317 314 307 305 304 302 302 301 300 298 297 296 296 296
317 315 316 317 318 318 318 319 319 320 320 321 321 322 323 324 324 326 327 328 329 331 332 331 333 333 333 333 333 332 331 332 333 333 334 333 329 328 328 328 328 328 327 327 326 326 327 327 327 327 327 327 327 328 329 328 327 328 327 326 326 321 318 320 322 328 330 328 327 323 317 317 314 308 305 304 303 302 301 301 299 297 297 298 299
317 317 316 315 316 317 317 318 318 319 319 319 320 320 321 322 322 323 325 327 328 330 331 331 332 332 333 333 334 332 329 330 330 330 332 332 330 329 328 328 328 328 328 327 326 326 326 327 326 326 327 327 327 328 328 329 328 328 328 327 327 324 319 319 321 326 330 328 327 324 318 317 315 308 305 304 303 303 302 301 299 298 298 300 301
314 315 316 316 316 316 316 317 317 317 318 318 319 319 320 320 320 321 322 323 324 327 329 331 332 332 332 333 333 332 330 329 329 329 330 331 330 329 328 328 329 328 328 327 327 326 325 325 326 325 327 327 327 328 328 328 328 327 328 327 328 326 321 319 320 324 330 329 326 325 321 319 315 308 305 304 303 303 302 302 301 299 299 300 302
315 313 313 315 315 314 312 312 313 313 313 314 315 317 318 319 319 319 319 320 321 323 325 327 329 330 332 332 332 331 330 329 329 329 330 331 331 329 327 327 330 330 329 328 327 327 326 326 326 325 326 328 327 327 327 328 328 327 327 327 328 327 322 319 319 323 329 329 326 325 324 321 316 308 305 304 303 303 303 302 303 302 301 302 305
315 314 313 314 314 313 312 311 311 310 309 308 309 310 313 316 318 318 318 319 320 320 321 323 325 327 329 331 332 331 330 330 330 330 330 330 331 330 328 327 328 328 329 330 329 327 327 326 326 326 326 327 327 327 327 327 328 327 326 327 328 328 324 319 318 322 327 328 326 325 325 323 318 308 304 305 303 303 304 303 304 305 304 306 308
314 314 313 314 315 316 315 314 312 311 311 311 311 312 311 312 315 317 318 319 320 320 321 322 323 325 327 329 331 331 331 331 330 330 330 329 330 329 328 328 329 328 328 330 330 329 328 327 327 327 327 327 327 327 327 327 327 327 326 327 327 328 326 321 318 321 326 328 326 325 324 324 321 313 305 304 304 303 305 305 307 308 307 307 309
314 314 314 315 315 315 314 312 310 310 312 313 314 314 313 313 314 315 316 317 318 319 320 321 321 322 325 327 329 330 331 331 331 331 330 330 329 328 327 328 330 330 328 329 329 329 329 328 328 327 326 327 327 327 327 326 326 326 326 326 326 327 327 323 319 320 324 327 327 325 323 324 323 317 309 305 304 304 307 308 309 310 308 307 309
313 313 313 313 312 312 312 311 311 310 311 310 310 310 310 311 312 312 314 314 315 317 318 319 320 320 322 324 326 328 329 329 330 331 331 330 329 328 328 328 330 330 330 330 329 329 329 329 328 328 327 326 326 326 326 325 325 326 326 326 326 326 326 323 318 320 323 326 327 325 321 322 322 318 312 307 305 306 309 309 309 309 307 306 307
313 313 312 312 312 312 312 312 312 311 311 311 311 311 311 311 311 312 313 315 316 316 317 317 318 319 320 321 323 325 327 327 328 330 331 330 330 329 329 330 331 331 331 330 329 329 329 329 328 328 327 327 326 326 326 325 325 325 325 326 326 326 326 322 317 319 323 326 327 325 321 320 319 315 311 308 307 308 309 310 309 308 306 305 305
313 312 312 312 312 311 311 311 310 310 311 312 312 312 312 312 312 312 313 313 314 315 316 317 316 317 319 319 320 322 325 326 327 328 330 330 330 329 329 330 331 332 332 331 331 330 329 328 329 328 327 326 326 326 326 326 325 324 324 326 326 326 325 321 316 318 324 326 326 324 321 319 318 316 311 309 309 309 309 309 308 307 305 303 302
311 310 310 310 310 311 311 311 310 310 310 311 311 311 311 311 311 311 311 311 312 313 314 316 316 317 317 319 320 320 321 324 326 326 328 329 329 328 329 329 330 330 331 332 332 330 329 328 328 328 327 327 326 326 326 326 326 324 324 325 326 325 324 321 316 317 323 325 324 324 322 318 317 317 313 309 310 309 309 309 308 306 304 302 301
310 310 310 310 311 311 311 310 309 310 310 311 311 311 311 311 311 310 311 311 311 312 313 314 315 316 317 318 319 320 320 322 324 326 327 328 329 329 327 328 330 329 329 331 330 328 327 328 328 328 327 327 326 326 325 326 326 325 324 325 324 323 322 320 316 316 321 324 324 325 323 318 317 318 314 310 310 310 308 308 307 305 303 301 300
310 311 311 310 310 309 308 308 309 310 310 310 310 310 310 310 310 310 310 310 311 311 311 311 312 314 316 317 317 318 320 320 322 324 326 327 329 329 327 328 330 330 328 329 329 328 327 328 328 327 327 327 326 326 326 325 325 325 324 324 323 322 321 319 316 316 319 323 324 324 323 318 316 317 314 311 311 310 308 308 306 304 301 299 297
311 311 310 309 309 308 308 309 309 309 309 308 308 308 309 309 309 310 310 310 310 310 310 311 312 313 315 316 317 317 318 320 320 322 323 325 327 328 328 329 329 330 329 328 328 328 328 328 328 327 327 327 326 327 327 326 325 324 323 323 323 321 320 318 316 317 321 324 325 324 323 319 316 315 314 312 312 311 309 307 305 302 299 297 295
311 310 309 309 308 309 309 309 309 308 308 307 307 307 307 308 308 308 309 309 309 310 310 310 311 312 313 314 315 316 317 318 319 321 322 324 325 326 327 328 328 329 329 328 328 328 328 328 328 328 327 327 327 327 328 327 325 323 322 322 322 321 319 318 318 320 323 326 326 324 323 321 318 315 313 312 312 311 309 306 304 300 297 295 294
310 309 309 309 309 309 309 309 309 308 307 307 307 307 307 307 307 307 308 308 308 309 309 310 310 310 311 312 312 313 314 316 317 319 321 323 325 326 327 327 328 328 329 329 329 329 329 328 328 328 328 327 327 327 328 328 326 323 322 322 322 322 320 319 321 323 324 326 326 325 324 323 320 316 313 311 311 311 308 305 302 299 296 294 294
309 309 309 309 309 309 309 309 308 308 307 307 306 306 306 306 306 307 307 307 307 308 308 308 309 309 310 310 311 311 312 313 314 316 318 320 324 326 327 327 328 328 329 329 330 329 329 328 328 328 328 327 327 327 328 328 328 325 323 323 323 323 321 322 323 324 325 326 326 325 325 324 321 316 312 311 311 311 307 303 300 297 295 294 294
310 310 310 310 310 309 309 308 308 307 307 306 306 306 306 306 306 306 307 307 307 307 307 308 308 308 309 310 310 311 311 312 313 314 315 317 320 323 325 327 328 328 329 329 329 329 329 328 327 328 328 328 327 327 327 328 328 326 324 324 324 324 324 324 324 325 325 326 326 325 323 323 320 315 312 311 311 310 307 303 299 296 295 294 294
310 310 310 310 309 309 308 307 307 307 306 306 306 306 306 305 305 306 306 306 306 307 307 307 308 308 308 309 309 309 311 311 312 312 313 314 317 319 322 324 326 326 328 329 329 329 329 328 328 327 327 328 327 327 327 327 327 325 324 324 324 323 324 324 324 325 325 325 324 323 321 319 317 314 311 311 311 310 307 304 298 295 295 294 294
310 310 310 309 308 308 307 306 306 305 305 305 305 305 305 305 305 305 305 306 306 306 306 307 307 307 308 308 309 309 309 310 310 311 312 313 315 316 318 320 322 324 325 327 328 328 328 328 328 327 327 326 326 326 327 327 326 324 321 321 321 322 324 324 323 324 324 324 322 320 319 317 315 313 311 311 311 309 308 304 298 295 295 295 294
310 309 308 308 307 306 306 305 304 304 304 304 304 305 305 305 305 305 305 305 305 306 306 306 306 306 307 307 308 308 309 309 310 310 311 312 313 314 316 317 319 321 322 324 326 327 327 327 327 326 326 325 325 325 326 325 325 323 320 318 317 318 321 323 323 321 320 320 319 317 317 316 314 312 310 310 310 309 308 304 297 295 295 294 293
309 308 307 307 306 305 305 304 304 304 303 303 303 303 304 304 304 304 304 304 305 305 305 305 305 305 305 305 306 307 307 308 309 310 310 311 311 312 313 314 315 316 318 321 323 325 326 326 326 326 325 325 325 324 324 323 320 319 319 318 317 316 317 318 319 320 318 317 316 316 315 314 313 312 310 310 309 309 307 302 296 295 295 294 294
307 307 306 305 305 304 304 303 303 303 302 302 302 302 302 302 302 302 302 302 303 303 303 303 304 304 304 304 304 304 305 306 307 308 309 310 311 311 311 311 312 312 313 316 319 322 324 326 327 326 325 325 324 323 322 321 319 318 318 317 316 316 315 313 313 315 316 316 315 313 313 313 313 311 310 310 309 308 305 299 295 295 294 294 295
306 306 305 305 304 303 302 302 302 301 301 301 301 300 301 301 300 300 301 301 300 301 301 301 302 302 303 303 303 303 304 304 304 305 306 307 308 310 310 311 311 311 310 312 314 318 321 324 326 327 325 324 323 322 322 322 320 318 317 315 314 312 310 308 308 309 311 313 313 311 311 312 312 310 309 309 308 306 301 296 295 295 294 295 296
305 305 304 303 303 302 301 301 300 300 300 300 299 299 299 299 299 299 299 299 299 299 299 300 300 301 301 302 302 302 302 303 303 304 304 305 305 307 309 310 310 311 311 311 311 313 317 321 323 326 326 325 323 322 322 322 319 317 316 315 313 309 307 307 306 306 308 310 310 308 308 309 309 309 308 307 307 304 299 295 295 294 294 297 297
304 303 303 302 302 301 300 300 300 299 299 299 298 298 298 298 298 298 298 298 298 298 298 299 299 299 300 300 301 301 302 302 302 302 303 304 304 305 306 307 308 310 310 311 311 311 314 317 320 322 324 324 324 322 321 320 318 316 315 314 312 309 307 308 307 307 308 309 308 306 305 304 304 305 305 305 305 301 297 295 295 295 296 298 296
303 303 302 302 301 300 300 299 299 299 298 298 298 298 298 298 298 298 298 298 298 298 298 298 298 298 298 299 299 300 300 301 301 302 302 302 303 303 304 305 306 308 309 311 311 312 313 314 316 319 320 323 324 323 321 320 317 314 313 311 310 309 308 308 309 309 308 308 307 305 303 301 301 301 301 302 301 298 295 295 295 295 297 297 294
302 302 301 301 300 300 299 299 299 298 298 298 298 298 298 298 298 298 298 298 297 297 297 297 297 297 297 298 298 299 299 300 300 301 301 302 302 302 303 303 304 306 308 310 311 313 313 313 314 315 317 319 322 322 322 320 316 314 313 312 311 309 308 308 309 307 305 305 307 305 302 300 299 299 299 299 298 295 295 295 294 295 297 296 294
302 301 300 300 299 299 299 298 298 298 297 297 297 297 297 297 297 297 297 297 296 296 296 296 296 297 297 297 297 298 298 299 299 299 300 300 301 301 302 302 303 303 305 307 308 309 311 312 313 314 315 316 318 320 322 321 318 315 315 314 312 309 307 306 306 304 302 303 305 304 302 300 298 297 297 297 295 294 294 294 294 295 297 295 294
300 300 299 299 299 298 298 298 297 297 297 297 297 297 296 296 296 296 296 296 295 295 296 296 296 296 296 296 296 297 297 298 298 299 299 299 300 300 301 301 301 301 302 303 305 306 307 309 310 312 314 315 316 317 319 321 320 316 313 311 309 307 306 305 303 302 301 301 301 302 302 299 297 296 296 295 294 293 293 293 294 296 296 294 294
299 299 298 298 298 297 297 297 297 297 296 296 296 296 295 295 295 295 295 295 295 295 295 295 295 295 295 295 296 296 297 297 298 298 298 299 299 299 300 300 300 301 301 301 302 304 305 307 309 311 314 316 316 316 317 319 321 318 312 309 307 306 305 305 303 301 300 300 300 301 301 298 296 296 295 294 294 293 293 293 295 296 294 293 295
298 298 298 297 297 297 296 296 296 296 296 295 295 295 294 294 294 294 294 294 294 294 293 293 294 294 294 295 295 295 296 296 297 297 298 298 298 299 299 300 300 300 300 301 301 302 304 306 308 310 313 316 317 317 318 319 321 319 313 310 308 306 305 306 304 301 299 299 299 299 299 298 296 295 295 294 294 293 293 294 295 295 293 293 296
298 297 296 296 295 295 295 295 295 295 295 294 294 294 293 293 293 293 293 293 292 292 292 292 292 293 293 294 294 295 295 295 296 296 297 297 298 299 299 300 300 300 300 300 301 301 303 306 309 311 313 316 317 318 318 320 321 320 316 313 310 307 306 306 305 301 300 299 298 298 298 298 296 295 295 295 295 294 294 294 294 294 294 294 296
Wind_Speed
9 9 11 13 13 14 15 16 17 15 13 12 11 9 10 11 12 12 10 10 9 9 11 11 11 8 6 6 5 5 8 10 10 11 13 9 8 7 6 5 5 6 8 11 13 12 13 13 11 9 7 7 7 7 6 6 7 7 7 7 6 9 10 9 8 7 6 5 5 6 6 6 7 9 10 10 10 10 11 11 12 13 14 14 15
9 9 12 13 13 13 15 18 17 16 14 16 15 11 12 12 12 14 13 12 10 8 11 13 11 9 9 10 9 8 11 11 10 12 13 10 8 8 7 7 5 5 8 11 12 12 13 13 12 10 8 6 6 7 7 6 7 8 7 8 7 8 10 8 8 7 5 5 5 6 5 5 7 8 9 9 9 10 11 11 12 13 14 14 14
9 10 12 12 12 12 14 17 19 17 15 18 17 11 15 16 14 16 16 16 14 11 14 15 10 8 8 12 11 8 11 13 11 12 13 12 10 9 9 8 6 5 7 10 13 13 13 14 14 12 10 7 7 8 7 5 7 9 8 9 9 8 8 8 8 7 4 5 5 4 4 5 6 7 8 9 9 10 10 11 12 13 13 13 14
8 9 11 12 12 12 13 15 16 18 16 18 17 10 14 19 17 18 19 19 15 12 17 16 10 10 7 9 10 8 9 13 14 13 13 13 12 12 11 10 8 6 7 9 12 14 13 14 16 14 12 10 8 9 8 6 7 10 10 10 11 9 8 8 8 7 5 5 5 4 3 4 6 6 7 8 9 9 10 10 11 12 13 13 13
8 10 11 12 12 11 12 12 12 17 18 18 18 12 12 18 18 18 18 17 13 10 15 16 11 12 9 8 9 8 8 11 14 15 13 13 13 13 13 11 9 8 8 8 11 14 13 14 17 15 13 12 10 10 9 7 8 11 12 11 12 10 9 9 8 7 5 4 5 3 2 3 5 5 7 8 9 9 9 10 11 11 12 13 13
8 10 10 12 13 11 10 10 10 15 18 18 20 16 14 17 18 17 16 15 14 10 11 16 13 10 10 10 10 10 10 11 14 17 16 14 14 14 13 13 11 10 9 8 10 13 14 14 17 17 15 13 11 11 10 9 8 10 12 13 13 12 9 9 9 8 5 5 5 3 2 2 4 5 6 7 8 9 9 10 11 11 12 12 13
7 9 10 11 11 11 9 9 10 13 15 17 20 19 16 17 17 16 15 14 15 11 8 14 15 11 9 10 11 11 12 13 13 16 19 17 16 16 14 14 13 11 10 9 9 11 13 14 16 18 16 15 13 12 11 11 10 10 12 13 13 13 9 9 10 8 5 6 6 4 2 1 3 4 6 7 8 8 9 10 10 11 11 12 12
4 6 9 10 10 9 8 9 12 13 14 15 19 19 16 17 17 15 12 10 12 12 9 11 13 12 9 9 11 11 11 13 12 14 19 19 18 16 15 15 14 12 11 10 10 10 12 13 14 18 18 16 15 15 13 12 12 11 12 13 12 13 10 9 11 8 6 6 6 5 3 1 3 4 6 7 7 8 8 9 9 10 11 11 12
3 2 6 8 8 8 8 10 12 14 15 15 17 17 15 15 16 14 12 11 10 11 10 9 13 15 14 13 13 12 12 13 12 12 16 19 18 18 17 15 14 13 12 11 11 10 11 11 13 16 18 18 17 16 14 13 13 11 13 15 13 12 11 10 12 10 6 6 7 6 4 3 3 4 5 6 7 7 8 8 9 10 11 11 11
4 2 2 5 4 5 9 10 11 13 15 16 16 15 14 14 14 13 14 15 13 12 11 8 11 13 15 17 17 15 14 14 14 11 13 16 18 19 19 17 16 15 14 13 12 12 11 12 12 14 18 19 18 17 16 14 14 12 13 16 14 13 12 11 13 12 7 6 8 8 6 4 4 5 5 6 6 7 8 8 9 10 10 10 10
6 5 3 1 3 3 6 9 11 12 13 13 12 12 13 14 14 14 15 16 16 15 12 7 7 8 9 14 18 19 17 16 16 14 13 15 17 19 20 19 18 17 17 16 15 14 13 13 13 15 17 19 19 18 17 15 14 14 14 16 16 14 13 12 13 13 9 8 10 9 7 5 4 5 5 6 6 7 8 8 8 9 10 10 9
4 4 4 3 2 3 4 6 8 9 12 12 11 9 10 13 15 16 14 14 17 18 15 9 8 9 9 10 13 19 20 17 17 18 16 15 18 20 20 21 21 20 20 19 18 17 15 15 15 15 17 19 19 19 18 16 15 16 16 17 18 16 15 13 14 14 11 10 12 11 9 7 6 6 6 6 7 7 8 7 8 9 9 10 9
3 2 2 3 3 2 3 4 5 5 5 9 13 11 11 12 12 15 15 13 15 18 18 14 11 9 9 9 9 14 21 21 18 18 19 18 18 20 21 21 22 23 23 22 20 19 18 17 16 16 17 19 19 20 20 17 16 17 17 18 19 19 17 15 14 15 14 11 13 13 10 8 7 7 7 7 7 7 8 7 8 8 9 9 9
5 4 3 2 1 1 1 1 4 5 4 4 10 11 11 12 11 15 17 14 14 16 16 15 12 9 6 5 6 8 17 23 21 18 18 20 20 20 21 21 22 23 25 24 22 21 21 19 18 18 18 19 20 21 21 20 19 19 19 19 20 20 19 16 16 17 16 13 13 14 12 10 8 8 8 7 8 8 8 8 8 8 9 9 9
3 3 3 4 3 2 2 1 3 4 4 3 5 7 9 11 12 14 14 13 14 14 14 14 14 10 4 2 2 3 7 14 19 20 19 20 21 22 22 21 22 21 23 26 26 24 23 22 21 20 19 19 20 20 21 21 20 20 21 21 21 22 21 19 17 19 19 16 14 16 14 12 10 9 9 8 8 8 8 8 8 8 9 9 9
2 1 2 4 3 2 3 1 2 4 3 3 3 5 7 8 9 10 11 13 14 14 14 14 15 11 4 2 2 2 3 6 13 20 23 22 22 24 25 24 23 22 21 25 28 28 26 24 22 21 20 19 20 21 21 20 19 19 20 22 22 23 24 21 18 20 21 18 16 17 16 14 11 10 10 9 9 9 9 9 8 8 8 9 9
3 2 2 4 3 2 3 2 2 3 3 3 4 5 6 6 7 8 10 12 14 16 17 17 17 15 9 4 2 2 3 3 6 14 21 23 24 25 26 26 26 25 25 24 25 27 28 26 23 22 21 20 21 22 22 20 19 19 20 22 23 24 26 24 21 21 23 20 18 19 18 16 13 12 11 10 10 10 10 9 9 8 8 8 8
3 1 2 4 4 4 4 4 3 3 4 5 5 6 6 7 7 10 12 12 13 16 19 19 17 17 18 16 10 4 1 1 0 5 11 17 23 26 27 28 28 27 28 27 26 27 28 27 25 23 22 21 22 23 24 23 22 21 20 22 23 25 28 27 23 23 25 22 20 20 20 18 15 14 13 12 11 11 10 10 9 8 8 7 7
3 3 2 2 3 4 4 4 4 4 5 6 7 8 8 8 8 9 11 13 14 16 18 18 15 17 22 24 21 14 6 2 2 2 3 7 14 21 25 27 28 27 28 29 29 29 29 28 25 24 24 23 24 26 26 26 24 22 20 21 23 26 30 30 25 25 26 23 21 22 21 19 17 15 14 13 12 12 11 10 9 8 7 6 6
2 2 3 3 2 3 4 5 5 5 5 6 7 8 9 10 11 10 10 11 13 16 18 17 15 16 19 21 24 23 17 14 15 9 2 3 7 12 18 23 26 28 29 30 31 30 31 30 27 26 27 27 26 27 28 27 25 23 21 21 23 26 30 31 28 26 27 24 22 23 22 21 19 17 16 14 14 13 12 12 10 9 7 6 5
2 2 2 3 4 4 5 5 6 7 8 9 9 10 11 12 13 13 12 12 12 14 16 17 17 18 18 18 20 22 20 21 24 18 9 6 5 5 11 16 20 27 31 31 31 31 31 31 29 29 30 30 29 29 29 29 27 24 22 22 23 26 29 31 30 28 29 26 23 23 23 22 21 19 17 16 15 14 13 13 12 10 9 7 6
2 1 2 3 3 4 4 5 6 7 9 10 12 13 14 14 14 15 16 16 16 16 15 16 17 18 19 18 18 17 14 13 18 20 14 10 8 7 10 12 11 18 26 30 33 32 30 30 29 30 32 32 32 31 31 31 29 27 24 23 24 26 27 30 32 30 30 29 25 24 23 22 22 21 19 17 16 15 14 13 12 11 9 8 8
4 3 3 3 4 3 3 4 6 7 9 9 10 12 14 15 15 16 17 17 18 18 19 18 18 19 20 20 21 20 17 14 17 20 15 11 8 7 12 16 15 17 19 22 28 31 31 30 30 31 33 34 33 33 33 31 30 28 26 24 24 26 27 29 33 33 32 32 28 25 24 23 22 22 20 19 18 16 15 14 13 12 10 9 10
7 5 4 4 5 3 3 5 8 10 10 10 10 11 12 14 17 18 19 18 17 18 20 20 20 20 20 21 23 24 24 23 22 21 17 15 12 6 11 16 15 16 18 16 18 24 27 27 28 31 33 34 33 33 33 32 31 29 28 26 24 26 27 29 33 35 34 34 31 27 25 24 22 22 22 20 19 17 16 14 13 13 12 11 12
8 6 5 5 6 6 7 9 11 11 11 12 13 13 14 15 18 20 22 22 21 19 20 20 21 21 20 20 22 23 25 26 25 23 20 20 16 10 14 16 11 13 17 15 14 17 20 21 22 25 30 33 32 32 32 31 30 30 29 28 26 26 27 29 34 36 35 35 34 30 27 25 23 23 22 21 20 18 17 16 15 15 13 13 13
9 8 8 8 9 10 12 12 12 13 14 15 16 17 18 18 19 20 22 23 23 23 23 23 22 21 21 21 21 22 23 25 26 25 24 22 19 14 13 13 12 13 13 14 14 13 15 18 20 21 25 29 31 31 30 30 29 30 31 30 29 28 28 30 34 37 37 37 36 32 29 27 25 24 23 23 21 19 18 17 17 17 14 14 15
10 10 10 10 10 11 12 13 14 15 16 16 16 17 17 18 19 20 20 21 21 22 24 25 24 23 22 23 23 23 23 24 24 26 26 25 24 23 17 9 7 9 8 9 12 13 15 16 17 19 22 26 31 32 30 30 30 29 31 32 31 31 30 30 34 38 38 38 36 32 30 29 27 26 25 24 22 21 20 19 19 17 16 15 16
11 11 10 11 11 12 13 14 15 16 16 16 16 16 16 17 19 20 20 20 21 22 22 24 25 25 24 24 25 25 24 24 24 25 26 27 26 26 23 15 9 6 5 5 7 10 15 15 15 17 18 20 26 31 31 32 31 29 31 34 34 32 32 31 33 38 39 38 35 33 32 31 29 27 26 25 24 22 21 21 19 18 17 16 16
11 11 11 11 12 12 13 14 14 15 16 16 16 16 16 17 18 19 20 20 21 22 22 23 24 24 24 24 25 26 26 25 25 25 26 28 28 27 26 23 16 8 5 5 5 7 11 14 15 17 18 18 19 24 28 31 33 31 32 35 35 33 33 32 33 37 39 38 36 34 33 32 30 29 27 26 25 24 23 21 20 19 17 16 16
11 10 10 10 11 12 13 14 14 15 16 16 17 16 16 17 18 19 19 19 19 21 22 23 24 24 24 24 24 25 26 26 27 26 26 27 28 28 28 28 24 16 10 6 6 10 12 14 16 18 18 19 18 20 25 31 35 34 34 36 36 33 33 34 34 36 38 37 36 35 35 33 32 31 28 27 27 25 23 22 21 19 18 17 16
10 10 10 11 12 13 14 14 14 14 15 16 16 17 17 18 19 20 20 19 20 22 23 24 24 24 24 25 25 25 26 26 27 27 27 27 27 28 28 28 27 25 20 12 6 12 17 16 18 19 18 18 18 19 24 32 36 37 36 36 35 33 33 35 36 35 37 38 38 36 35 34 34 32 30 29 28 26 24 23 22 20 18 17 17
11 11 12 12 13 13 14 14 15 15 16 16 16 17 18 19 20 20 21 20 20 22 23 23 23 24 24 24 25 25 25 26 27 28 28 28 28 28 28 28 28 27 26 19 9 12 21 22 20 21 20 20 19 18 23 29 33 36 38 38 35 34 35 36 37 36 36 38 39 37 35 35 35 33 32 32 30 27 26 25 23 21 19 18 17
12 12 12 13 13 14 14 15 16 16 16 16 17 17 18 19 20 20 21 21 22 22 23 23 23 24 24 24 24 24 24 24 25 27 29 29 28 29 29 28 28 28 27 22 14 13 21 23 22 21 19 20 20 19 22 26 29 33 36 38 36 35 37 38 38 38 38 39 40 37 34 36 36 34 33 34 32 29 27 25 23 21 20 19 17
12 12 13 13 14 14 15 16 16 16 17 17 18 18 18 18 20 21 22 22 23 23 24 24 23 24 25 26 27 27 26 26 26 25 26 28 29 29 29 28 29 29 27 25 20 16 18 21 22 22 19 19 21 20 21 25 29 32 33 36 37 36 38 40 39 40 40 41 41 39 36 36 37 37 35 35 33 30 28 26 24 22 20 19 18
12 13 13 14 14 14 15 16 16 17 18 19 19 18 18 18 19 21 22 23 24 25 25 25 25 24 25 26 27 28 28 28 28 26 25 25 26 28 29 29 29 30 29 28 24 19 19 20 21 23 22 21 22 23 23 23 28 30 30 32 36 37 39 40 40 41 42 42 43 41 38 37 38 39 36 35 35 31 28 27 25 23 22 20 18
12 13 14 14 14 15 16 17 18 19 20 20 19 18 18 18 20 22 23 23 24 24 25 25 25 25 25 25 26 27 27 28 28 28 27 25 23 24 27 28 29 30 30 30 28 24 22 21 20 22 25 24 24 26 25 23 27 31 29 30 33 37 40 40 40 41 42 43 43 43 41 39 40 39 37 36 35 32 29 28 25 23 22 21 19
13 14 14 15 15 16 16 17 18 18 19 19 19 19 19 19 21 23 24 25 25 25 25 25 25 25 25 25 26 26 27 27 28 29 29 28 26 24 23 25 27 28 29 30 30 28 26 24 22 22 25 26 25 26 27 27 29 29 27 28 31 34 37 38 39 40 42 43 43 43 42 41 40 38 36 36 35 33 31 28 25 24 23 21 19
14 14 15 15 15 15 15 16 18 19 20 20 21 22 22 22 23 24 24 25 26 26 27 27 27 26 25 25 26 27 28 28 28 28 29 28 28 26 24 23 23 25 27 28 29 28 28 28 26 23 23 25 25 26 29 31 33 31 27 24 27 31 35 37 38 39 42 44 44 43 43 41 39 36 35 35 35 34 33 29 26 25 24 21 19
14 14 14 14 14 14 16 18 19 18 18 18 20 21 23 24 24 25 25 25 25 25 25 26 25 25 25 24 24 25 26 28 29 30 30 30 29 28 26 23 23 22 23 25 27 28 27 27 27 24 23 24 25 26 30 33 33 32 30 27 26 29 33 37 39 40 41 43 43 43 42 40 37 35 34 35 35 35 33 30 27 26 24 22 19
14 13 13 14 15 16 17 16 14 15 16 17 18 19 20 22 23 23 24 24 24 24 24 25 26 27 27 27 26 24 24 24 26 27 29 30 31 31 31 28 26 25 23 22 22 23 25 25 26 25 23 24 26 27 28 29 27 26 31 33 32 32 33 34 37 39 41 43 42 41 41 40 38 36 35 35 36 36 33 29 28 27 25 22 19
13 13 14 14 15 14 13 13 14 16 18 20 21 21 22 23 24 26 26 25 25 25 25 28 29 31 31 31 31 30 28 26 26 26 26 27 29 32 35 35 32 29 26 24 21 19 20 22 24 24 22 21 23 24 25 29 31 30 32 32 31 34 34 31 31 36 39 42 42 41 40 41 40 38 38 38 38 36 33 31 29 28 26 23 20
12 13 13 12 12 12 12 14 16 18 20 22 23 25 26 26 27 28 28 28 27 26 26 27 28 30 31 32 33 34 34 33 31 30 29 28 27 28 31 33 34 33 30 28 26 22 20 19 20 20 19 19 22 25 28 33 36 33 32 31 27 29 29 23 22 28 35 40 41 39 40 41 41 40 40 41 40 37 35 33 31 30 27 24 21
10 10 10 10 11 12 14 16 18 20 22 23 25 27 28 28 29 31 31 31 29 28 28 27 28 29 30 31 33 34 35 35 34 33 32 31 30 29 29 29 31 33 32 31 29 26 23 21 20 20 19 20 24 30 32 34 34 33 35 36 32 28 27 22 18 22 34 40 39 37 38 39 41 42 42 42 42 40 38 35 33 31 28 24 21
9 10 10 11 13 14 15 17 19 21 22 24 26 27 27 27 28 29 31 32 32 31 30 30 30 30 30 31 31 32 33 34 34 34 34 33 33 32 32 31 31 32 33 33 32 31 28 25 22 23 22 20 21 29 33 35 36 37 38 37 34 33 33 29 25 26 35 43 40 35 35 36 38 40 42 43 43 40 38 37 35 32 29 24 21
11 11 12 13 13 14 15 18 20 21 23 25 27 27 27 27 27 28 30 32 33 33 32 31 31 31 31 31 32 32 32 33 33 33 33 33 33 33 33 34 34 33 33 34 34 34 33 31 28 27 27 24 20 24 31 36 39 38 36 33 34 36 36 35 35 33 35 43 42 33 29 33 37 39 40 41 41 40 38 38 36 32 28 24 20
12 11 11 11 12 14 16 18 20 22 24 26 26 26 26 27 27 28 29 31 32 32 32 32 31 31 31 31 32 33 33 32 33 32 32 32 32 32 32 32 33 33 32 32 32 31 31 32 33 35 34 30 27 25 26 32 38 39 39 39 39 40 37 34 32 29 29 39 43 33 24 30 37 37 38 39 39 39 40 39 36 31 27 24 20
9 8 9 11 13 15 18 19 22 24 25 25 24 24 25 25 26 27 29 30 31 32 32 32 32 33 33 32 33 33 33 33 33 33 33 33 33 33 33 33 34 35 36 37 35 32 30 30 33 37 39 37 34 32 29 31 38 43 43 44 44 40 33 26 22 20 23 34 40 32 21 26 34 36 35 36 35 36 37 36 34 31 26 23 21
6 8 10 12 15 17 19 20 22 23 24 24 23 24 26 27 29 30 31 31 31 31 32 32 33 34 34 34 34 34 33 33 33 32 33 33 34 35 36 36 36 37 39 40 39 37 36 34 34 36 38 41 40 38 36 34 36 39 36 30 30 30 26 20 18 19 23 30 38 35 24 22 32 35 32 30 31 31 33 33 32 30 26 23 21
7 9 12 14 16 18 20 21 22 23 24 25 26 27 28 29 29 30 30 29 29 29 31 31 32 34 34 34 34 35 35 35 34 32 31 31 34 36 35 36 36 36 39 40 40 40 40 38 37 35 36 40 41 40 40 38 36 37 33 25 24 29 27 18 15 19 25 31 39 39 27 21 30 35 28 25 28 28 28 30 31 28 26 24 21
8 11 13 16 18 19 21 22 23 24 26 27 27 28 27 27 27 27 28 27 27 28 30 31 32 33 34 35 35 36 37 37 35 34 32 31 33 34 33 34 34 35 37 35 35 39 39 38 39 37 34 37 40 40 39 39 38 38 38 35 31 32 29 21 17 17 20 27 38 40 28 20 26 31 25 19 20 25 28 29 29 27 25 25 22
9 12 15 18 21 23 24 25 26 27 28 28 28 28 28 27 27 27 28 28 28 30 31 32 33 33 33 34 35 36 37 38 37 36 35 34 33 33 31 30 32 34 35 31 30 33 34 32 34 34 32 34 38 41 39 38 40 41 43 45 42 37 32 27 23 17 10 19 37 42 30 21 25 30 27 19 11 15 24 27 27 26 25 25 23
Wind_Direction
211 223 226 219 215 210 207 204 199 197 193 191 201 210 206 204 212 218 223 232 234 236 237 219 202 204 220 229 225 202 189 202 213 196 186 180 173 174 176 183 191 194 195 190 187 185 181 182 186 191 199 190 184 179 175 175 164 150 139 142 139 120 109 99 104 112 122 124 106 101 88 68 56 52 55 56 57 57 55 55 55 56 58 60 63
205 218 224 220 215 213 213 211 206 202 191 187 198 220 224 221 228 231 239 244 244 254 229 199 190 207 228 241 248 231 204 208 219 201 193 192 189 191 189 192 197 199 203 200 196 192 186 187 189 191 206 215 192 181 181 177 165 158 154 155 148 126 114 106 114 127 135 127 114 105 87 65 55 55 60 61 61 60 58 59 58 58 59 60 63
204 208 218 219 216 216 217 213 211 207 196 193 201 219 222 224 237 242 249 247 252 262 222 198 189 192 213 235 244 249 218 207 213 208 202 204 206 204 197 197 206 210 209 207 205 203 198 192 192 194 205 221 201 192 191 175 166 165 165 160 151 134 119 114 123 137 139 125 124 114 88 62 56 58 64 65 65 62 61 62 61 62 61 61 63
215 212 214 216 220 224 219 212 213 210 202 201 205 216 215 216 228 239 244 243 253 256 212 195 192 191 200 232 239 255 232 209 209 211 208 209 213 210 202 199 206 212 211 214 212 212 209 196 196 198 199 208 202 199 199 186 178 170 168 164 154 143 129 124 131 146 143 127 131 126 93 62 60 65 68 69 67 65 64 65 64 64 64 64 64
219 220 216 214 214 216 214 206 209 211 208 207 209 220 221 212 218 232 240 241 257 260 209 193 194 198 200 221 233 240 234 220 215 213 213 214 216 214 207 202 205 208 207 216 214 213 217 204 199 200 197 202 202 200 201 195 191 178 172 168 159 151 141 134 142 157 154 141 147 143 104 68 68 72 73 73 70 68 67 67 67 67 67 67 66
214 215 215 214 206 204 206 203 206 210 212 209 209 222 228 215 218 231 242 249 260 267 223 206 200 194 201 217 231 234 233 231 222 215 217 222 220 215 211 208 207 208 206 209 210 212 221 215 205 203 200 201 203 204 202 197 199 191 179 172 164 159 150 143 152 165 167 162 165 164 132 80 79 81 80 79 74 72 72 70 69 69 70 71 70
201 210 219 220 210 206 205 205 210 210 213 213 214 223 228 219 220 229 241 252 254 257 236 209 199 192 208 223 230 240 237 228 228 222 220 223 219 213 214 214 210 209 208 206 207 212 222 222 211 208 206 204 204 202 202 199 203 202 188 178 169 163 158 155 162 168 169 172 177 179 172 106 94 92 89 84 80 78 77 76 74 73 74 75 74
173 213 227 225 212 207 208 209 210 205 207 213 218 224 226 219 217 222 240 252 243 242 238 211 205 212 226 226 226 244 244 228 235 234 222 220 218 214 213 216 214 210 210 211 211 210 217 222 217 215 213 209 204 202 207 207 206 208 195 185 178 172 168 164 171 175 168 175 187 190 197 164 115 104 99 90 85 85 83 82 80 79 80 78 77
105 216 242 237 214 202 210 206 201 203 208 212 216 221 223 219 217 222 238 241 228 237 247 238 234 234 228 222 221 232 241 235 241 240 222 217 217 216 214 214 213 212 213 214 213 209 210 217 219 219 217 214 211 207 213 214 211 212 200 192 189 181 177 172 178 184 176 179 193 200 207 192 140 118 108 99 93 94 92 89 86 85 85 82 80
102 115 243 263 246 221 225 216 205 206 210 210 212 219 222 221 221 226 232 230 227 239 255 263 255 243 230 226 222 221 226 229 232 238 233 223 218 217 218 217 214 213 217 216 211 207 209 214 217 218 216 220 223 217 215 219 215 212 204 197 196 189 181 178 185 191 190 190 198 204 210 201 158 135 121 110 105 104 100 95 92 91 90 86 82
115 106 122 226 279 264 242 231 220 214 211 206 204 214 223 222 218 216 221 225 230 243 258 270 264 259 250 233 225 224 225 223 223 229 239 236 231 227 220 220 220 218 220 219 215 211 209 214 217 219 218 221 227 225 221 221 215 211 208 201 200 198 186 183 193 198 201 199 198 205 210 204 173 148 136 123 117 113 109 103 99 98 96 92 87
125 114 129 151 215 257 267 257 246 231 218 208 201 205 220 227 224 217 221 233 237 243 254 269 270 265 271 257 237 230 228 226 224 222 228 235 240 237 225 221 223 224 225 222 219 216 212 215 220 223 223 222 226 227 225 224 216 211 210 205 202 201 192 189 199 203 207 198 191 201 209 205 184 159 148 135 128 123 118 112 107 105 103 98 94
84 78 127 153 187 216 271 284 297 283 238 212 213 217 223 229 233 227 223 235 243 243 248 263 280 278 273 278 270 244 228 225 225 219 221 228 237 241 236 230 226 225 227 224 220 218 216 218 223 225 224 223 225 226 227 226 219 211 213 210 203 201 198 196 202 205 209 201 189 196 207 207 190 169 160 147 138 134 127 121 116 113 109 106 102
77 51 33 24 210 220 264 308 346 329 317 250 225 229 238 233 239 240 229 227 241 250 253 257 266 271 273 295 305 264 229 223 224 220 222 228 232 238 241 240 237 231 226 222 220 220 222 225 226 228 226 226 226 225 226 226 220 216 216 214 208 204 202 201 207 206 205 204 196 198 207 209 196 177 169 158 148 143 136 131 126 122 117 113 110
60 42 32 35 34 1 316 308 2 356 339 310 243 241 252 241 240 251 247 239 243 253 257 252 249 247 246 269 282 271 235 226 223 222 227 231 232 233 236 240 243 239 226 220 222 223 227 229 227 228 226 228 230 227 226 226 224 224 222 220 215 208 204 205 210 206 202 206 202 201 207 209 200 186 177 167 157 151 145 141 135 131 126 120 116
357 346 10 21 22 20 22 339 354 8 356 335 294 273 268 254 244 251 255 252 251 254 252 246 240 233 214 196 203 195 251 241 228 228 231 232 232 231 232 236 240 241 231 222 223 226 228 229 228 230 227 230 235 230 227 227 227 228 224 224 223 213 206 207 212 206 203 209 207 202 208 210 203 191 183 176 165 158 153 149 145 140 135 128 121
318 271 316 340 313 295 345 346 340 2 352 337 318 297 281 274 266 256 253 252 255 259 255 250 243 236 231 222 201 204 224 233 239 238 235 233 233 230 230 235 237 239 238 233 229 228 227 226 227 230 229 231 237 234 228 226 227 227 224 225 225 219 210 206 209 207 203 206 204 203 209 209 205 196 187 182 172 165 160 156 154 149 144 137 126
2 326 300 323 319 302 305 318 318 320 323 314 304 302 296 291 285 269 260 257 258 257 256 258 255 248 242 236 239 253 226 101 347 261 248 240 236 233 231 235 238 239 236 236 237 231 224 223 225 227 229 233 238 236 231 227 225 226 227 226 223 221 215 208 207 206 204 204 199 202 209 209 206 200 191 187 178 170 167 163 160 156 152 145 133
5 0 340 309 311 309 301 305 309 307 313 310 301 303 302 301 303 292 275 267 260 253 257 263 261 256 251 245 245 255 274 282 253 308 308 265 248 241 237 234 237 240 235 232 237 232 222 220 223 228 231 234 238 237 232 227 226 226 230 230 224 221 218 212 209 206 204 203 198 201 209 210 208 203 194 190 183 176 172 168 166 161 158 153 140
245 319 338 323 301 288 293 300 304 306 307 305 302 299 298 297 300 301 293 284 274 265 265 267 260 258 260 255 251 253 255 246 240 246 275 291 282 267 255 245 239 241 238 234 237 234 225 222 226 232 233 233 236 237 232 227 227 229 231 232 227 223 220 214 211 208 205 203 198 201 207 209 209 205 197 192 186 180 176 173 171 166 164 164 155
193 213 253 296 309 300 296 296 293 293 291 290 289 284 288 294 297 299 297 295 294 286 277 269 263 261 261 259 256 252 249 244 244 247 244 243 267 283 275 265 249 242 239 236 238 236 230 228 230 233 232 230 232 233 232 228 229 231 233 232 227 223 221 215 212 210 208 206 200 198 204 207 209 207 199 195 189 183 180 178 175 171 171 171 169
201 226 226 238 269 284 290 296 294 296 297 294 291 286 283 285 291 296 297 295 293 293 291 284 276 271 264 258 255 249 244 242 242 242 238 236 241 248 264 271 264 253 245 238 237 236 232 230 231 232 230 227 228 229 231 229 229 231 234 234 226 219 219 216 212 210 209 210 205 200 201 203 208 209 202 197 193 187 184 182 179 177 176 174 176
208 244 262 249 266 283 296 307 307 306 309 307 304 301 293 286 286 288 292 295 293 290 290 290 286 279 271 262 255 250 246 243 241 237 230 227 235 243 253 258 263 267 261 249 241 237 233 231 231 232 228 225 225 227 229 228 228 231 235 234 225 218 218 216 212 209 209 211 208 204 201 201 205 209 205 199 194 190 186 184 182 181 180 178 179
217 239 257 255 260 265 271 285 294 297 302 304 302 303 300 292 287 284 285 287 290 293 291 288 287 284 276 267 261 256 249 247 248 243 235 233 234 238 247 250 257 262 262 261 251 240 235 234 234 234 230 226 226 226 226 226 226 231 235 235 227 219 219 219 213 209 208 211 211 208 203 201 201 204 206 202 196 192 188 185 185 184 183 181 183
218 230 229 228 238 249 262 275 284 287 288 290 289 289 291 289 285 284 283 283 284 289 290 288 288 287 284 277 269 262 254 250 249 246 245 242 235 238 247 244 245 254 255 257 259 249 239 237 238 236 231 225 224 224 222 222 226 230 233 235 231 224 222 221 215 210 209 211 213 211 205 202 200 200 204 203 198 194 189 187 188 187 188 186 188
214 222 224 234 250 262 269 273 276 278 281 285 287 287 289 288 287 286 285 286 286 285 284 284 287 287 286 285 278 271 265 259 254 250 248 245 236 235 244 242 237 243 249 249 252 254 246 243 243 239 234 226 221 220 220 222 227 231 232 233 233 230 225 221 216 211 209 209 211 212 208 205 204 202 203 203 200 195 190 191 192 193 195 192 194
216 225 233 242 252 259 266 271 275 280 285 288 289 289 290 289 290 289 287 288 290 289 285 283 285 285 285 286 283 278 272 268 263 256 250 246 243 239 234 230 238 242 239 236 237 242 247 254 252 242 239 235 227 225 228 230 230 232 233 231 231 232 226 220 216 212 211 210 210 213 211 208 210 208 206 204 202 197 194 196 198 199 201 199 201
222 229 235 242 251 260 268 275 281 287 289 289 289 287 287 287 287 289 288 287 289 290 288 286 286 283 283 286 284 279 276 273 268 263 257 251 248 245 238 227 226 238 241 233 230 239 244 249 252 243 239 240 233 229 234 238 233 231 232 229 228 230 226 220 216 213 212 211 211 214 214 211 213 213 209 206 204 200 199 200 203 204 206 206 211
233 240 248 254 261 266 271 277 284 290 290 290 291 289 287 285 284 286 288 290 290 289 288 289 290 288 285 286 283 278 277 276 271 268 264 257 251 249 246 237 229 227 242 246 228 232 240 239 243 245 244 246 243 235 234 238 236 230 228 227 226 228 226 219 216 214 212 210 209 214 216 213 214 215 211 208 206 205 204 205 207 209 211 213 218
241 249 256 261 266 270 276 283 286 288 291 293 294 293 290 286 284 285 288 290 290 288 287 287 289 290 288 287 285 281 277 275 272 269 265 262 256 250 247 244 239 232 233 247 241 236 239 236 234 240 245 245 249 248 239 236 236 231 225 224 224 226 225 219 215 214 213 210 209 212 215 212 212 215 214 210 209 209 208 208 211 213 216 219 224
242 247 255 262 270 279 284 288 287 287 291 294 297 296 295 292 288 286 286 286 285 286 289 289 287 289 290 287 285 285 283 276 273 271 266 262 259 254 250 247 244 239 235 236 248 245 241 238 235 237 241 242 246 253 242 231 229 227 223 221 222 224 223 217 213 214 214 211 209 211 213 212 212 215 216 213 212 212 212 211 213 216 219 223 227
241 250 261 270 277 283 286 285 284 286 289 291 293 294 294 294 293 291 289 287 284 284 288 291 289 288 290 288 284 284 287 283 275 271 268 264 260 256 253 249 247 246 242 236 240 252 248 246 247 244 242 242 245 249 243 230 221 218 217 217 219 220 218 213 211 213 214 212 210 210 211 212 213 216 217 216 214 213 214 214 215 218 222 226 227
248 258 269 276 279 282 282 282 283 285 288 290 293 293 291 291 293 295 295 292 288 285 285 287 288 288 289 290 290 287 289 291 284 274 267 264 260 256 253 249 245 245 244 239 236 250 252 247 245 244 238 233 233 236 238 231 217 209 210 213 216 216 213 209 209 211 212 211 209 210 210 211 213 217 218 217 216 215 215 215 217 221 225 225 224
256 266 273 277 280 282 282 284 287 288 291 294 295 294 292 292 292 294 295 295 293 289 284 282 283 285 286 288 290 290 289 291 293 287 275 263 256 252 250 248 245 244 242 238 234 240 249 244 238 237 230 220 222 227 231 228 216 207 207 210 211 211 209 207 208 209 210 211 209 209 211 212 212 215 216 216 216 215 215 217 219 223 226 223 221
265 272 277 279 281 283 283 287 290 292 294 296 295 293 292 294 295 295 295 294 293 292 288 285 283 281 282 284 286 288 289 288 289 292 289 276 261 251 247 245 244 245 242 237 233 233 244 247 237 231 226 218 220 226 229 226 216 208 207 208 207 206 205 207 209 209 209 210 209 209 212 213 213 213 214 216 216 214 215 218 222 225 226 222 218
270 275 278 280 281 282 284 288 291 293 296 296 295 292 291 294 296 298 298 296 295 294 293 291 288 283 279 279 282 285 286 286 286 288 291 291 281 264 253 247 243 244 243 239 236 233 240 247 240 231 228 222 219 223 224 218 212 210 210 209 205 203 204 206 209 209 208 208 210 211 211 213 213 211 213 216 216 214 216 220 224 226 224 221 217
269 273 275 278 282 285 288 292 296 298 299 298 298 296 295 296 297 296 296 295 295 295 295 295 294 290 284 279 278 279 280 282 285 286 286 289 291 284 271 259 249 245 243 241 239 236 236 241 241 235 229 223 217 215 214 207 202 204 209 209 205 202 203 204 206 209 208 207 210 212 212 213 212 210 212 216 216 216 218 222 226 226 223 220 217
265 269 274 279 283 288 294 299 301 302 302 301 301 299 297 296 295 293 292 293 293 293 293 294 294 294 292 288 282 277 275 276 278 282 285 286 288 290 286 278 269 257 247 241 239 236 233 236 240 234 224 219 213 207 208 207 202 199 199 199 201 202 203 202 204 208 208 207 208 210 211 212 211 210 212 215 217 218 219 223 227 226 223 220 218
262 268 274 278 281 289 296 300 301 304 307 309 308 307 305 300 295 292 291 291 293 293 292 292 293 294 295 295 293 286 280 276 272 273 278 281 285 288 289 288 286 280 267 252 242 235 232 234 238 235 225 219 215 209 208 206 204 200 193 186 191 200 204 204 204 205 205 204 205 208 210 211 211 212 214 216 219 219 221 225 227 225 222 219 218
261 267 272 278 285 292 294 295 299 305 311 315 317 319 318 313 307 304 302 300 297 295 294 293 293 294 295 295 296 295 292 287 281 276 275 276 278 281 284 288 291 293 290 279 261 246 237 234 235 235 229 219 215 211 202 193 190 195 194 190 191 195 200 204 205 205 203 201 203 205 207 208 209 212 213 216 219 220 222 226 226 224 221 218 219
261 267 275 283 289 288 287 290 297 302 304 307 309 312 313 313 313 312 310 308 305 302 298 295 293 292 292 292 292 292 292 291 290 288 285 282 279 277 279 283 285 289 293 291 284 270 255 243 236 232 226 218 211 202 190 186 190 195 196 194 194 195 196 199 203 205 203 200 201 203 205 206 207 209 212 214 217 219 222 225 224 221 219 218 218
262 272 279 282 280 280 287 295 299 301 302 302 301 300 299 301 306 308 309 309 308 306 303 299 295 292 290 290 290 289 289 288 289 289 290 289 286 283 282 282 282 283 284 285 283 279 269 258 249 237 225 218 209 196 190 195 199 196 191 192 194 191 187 188 199 206 204 199 198 201 204 206 207 208 210 213 215 217 220 221 220 218 218 219 219
268 277 279 276 277 285 294 300 303 304 303 301 300 299 297 297 300 303 304 305 305 304 302 299 296 294 291 289 289 288 287 287 286 286 287 288 288 286 285 285 284 282 280 278 276 274 268 263 262 252 235 223 210 199 196 198 197 193 191 193 192 184 179 183 193 203 205 202 197 198 202 205 206 207 209 212 215 218 219 219 219 217 218 221 221
277 280 277 277 282 289 297 304 307 306 303 302 303 302 301 300 300 299 299 300 299 298 297 296 294 292 291 288 287 286 285 285 285 284 284 284 284 285 283 282 283 283 282 279 276 273 267 260 260 261 256 244 221 203 198 196 195 195 196 195 192 187 187 191 194 200 205 202 196 195 200 203 205 206 209 213 216 219 220 219 219 218 218 222 221
283 278 274 276 283 294 306 311 311 308 306 305 303 301 299 299 299 297 295 294 294 294 293 292 291 289 288 286 285 283 281 281 282 282 281 281 280 282 283 281 280 281 282 280 277 276 272 262 255 256 259 258 243 221 208 201 196 193 193 195 195 193 195 200 202 203 202 198 193 193 198 203 204 205 209 213 217 219 220 220 219 218 219 220 219
276 268 270 281 295 306 311 312 310 307 307 305 303 300 300 300 299 297 295 293 292 291 291 290 289 288 286 285 283 281 279 278 277 277 278 279 279 279 279 279 278 277 278 277 277 281 281 271 258 254 254 255 254 247 231 213 203 196 194 197 200 200 201 204 206 205 200 196 193 190 196 206 204 204 209 213 215 218 220 220 218 217 219 219 217
268 272 286 300 309 312 313 312 310 308 306 305 304 302 302 302 301 300 299 296 294 291 289 288 287 286 285 283 281 280 278 276 274 273 274 276 277 276 275 275 275 274 274 274 275 279 285 284 273 263 257 253 251 253 247 228 213 207 204 205 203 200 199 199 199 200 199 197 194 190 197 207 203 203 209 212 213 218 221 221 219 218 219 218 218
287 302 312 317 319 319 318 316 312 308 306 305 305 305 304 304 303 302 299 296 293 291 289 287 286 284 282 280 279 278 276 274 273 272 271 272 273 273 271 270 272 272 271 270 272 274 277 281 282 277 268 259 252 250 249 241 225 215 212 209 201 192 189 188 187 190 193 196 196 195 198 203 201 202 207 209 211 216 220 221 220 218 219 217 217
319 326 329 330 328 324 322 317 312 308 308 308 307 307 306 305 304 302 299 295 293 291 290 289 286 284 281 278 276 275 274 273 272 270 269 269 269 268 268 267 267 269 268 268 270 273 275 276 278 282 279 269 258 250 247 245 235 218 206 199 192 188 186 186 187 191 194 197 199 199 200 201 199 198 200 205 210 215 220 222 220 216 216 216 215
340 342 339 335 331 327 323 318 314 311 309 309 309 307 306 305 303 301 300 298 296 294 293 291 289 285 282 278 275 273 271 270 269 268 267 266 264 263 264 264 263 263 265 269 271 272 274 278 278 280 283 275 261 250 245 241 234 219 204 198 196 191 190 194 194 187 192 201 200 197 200 204 195 190 187 189 204 215 220 223 221 214 210 211 213
341 342 342 340 335 330 325 319 314 311 308 306 306 304 304 304 303 302 303 301 298 296 294 292 290 287 284 280 276 272 270 268 267 265 263 261 260 259 260 261 260 259 261 266 270 271 272 278 281 281 286 282 264 248 241 237 231 222 212 206 200 194 193 197 190 170 176 212 203 194 195 198 187 182 180 174 182 212 216 216 217 211 205 205 209